THORAD DELTA 1 DEB, 8172

Orbit data source: Space-Track

THORAD DELTA 1 DEB, 8172 is space debris in SSO originally from a launch on Fri, 15 Nov 1974 UTC launched from the Air Force Western Test Range (AFWTR). Debris objects in space refer to the collection of defunct objects orbiting the Earth. Examples of debris include non-operational satellites, rocket bodies, and fragments generated from explosions, collisions, or faulty payload assembly.

Loading next visibility...
Identifier
8172, 1974-089AN
Orbit
SSO
Country
Flag of USUS
Related business
Manufacturer
Unknown
Mission
Spacecraft
Bus & Motor
Unknown
Mass
Unknown
Launch date (UTC)
1974-11-15 (51 years ago)
Launch vehicle
Unknown
Launch site
Air Force Western Test Range (AFWTR)
Object type
Payload
Rocket body
Debris
Shape & HBR
Unknown shape, 0.5 m
Radar Cross Section
Medium (>0.1 m² and <1 m²)

Expand to show TLE details & history
Last TLE update: 11 hours ago

TLE from 11 hours ago
0 THORAD DELTA 1 DEB
1  8172U 74089AN  26130.03414428 -.00000036  00000-0  64517-4 0  9991
2  8172 101.9798 147.8277 0053266 163.7182 220.2615 12.54929824358034
Epoch: 2026-05-10T00:49Z
TLE epoch observation values (Epoch: 2026-05-10T00:49:10.065Z)
Latitude
23.06324°
Longitude
-97.46526°
Altitude
1,478.322 km
Speed
7.112 km/s
True Right ascension
09h 30m 40s
True Declination
22° 57' 03"
Sunlit
Object was in daylight at epoch
Visualization orbit readout
Latitude
Unknown
Longitude
Unknown
Altitude
Unknown
Speed
Unknown
Apparent Right ascension
Unknown
Apparent Declination
Unknown
Sunlit
N/A
Visualization observer readout
Local Sidereal Time
19:34:20
Azimuth
Unknown
Elevation
Unknown
Doppler factor
Unknown
Orbital elements
Apogee altitude
1,483.148 km
Perigee altitude
1,399.844 km
Semi-major axis
7,819.633 km
Eccentricity
0.00533
Inclination
101.9798°
RAAN
147.8277°
Arg. of periapsis
163.7182°
True anomaly
219.86902°
Mean anomaly
220.2615°
Eccentric anomaly
220.06506°
Mean motion
3.1388 °/min
Orbital period
114.69 mins
BSTAR
0.000064517
Loading maneuver chart data...
Computing Atmospheric mass density...

Documentation

Showing up to 5 results
|